Weather History for LICZ - November, 2013

Change the Weather History Date:

Monday, November 25, 2013

  Actual Average Record
Temperature  
Mean Temperature 53 °F -  
Max Temperature 65 °F 63 °F 72 °F (2012)
Min Temperature 41 °F 45 °F 37 °F (2001)
Degree Days  
Heating Degree Days 12    
Growing Degree Days 3 (Base 50)    
Moisture  
Dew Point 45 °F    
Average Humidity 79    
Maximum Humidity 100    
Minimum Humidity 33    
Precipitation  
Precipitation 0.00 in 0.09 in - ()
Sea Level Pressure  
Sea Level Pressure 29.73 in    
Wind  
Wind Speed 4 mph ()    
Max Wind Speed 10 mph    
Max Gust Speed -    
Visibility 6.4 miles    
Events Thunderstorm    
Averages and records for this station are not official NWS values.
T = Trace of Precipitation, MM = Missing Value Source: Averaged Metar Reports

Daily Weather History Graph

Daily Weather History Graph

Search for Another Location

Airport or City:

Trip Planner

Search our weather history database for the weather conditions in past years. The results will help you decide how hot, cold, wet, or windy it might be!

Date:

Astronomy

Nov. 25, 2013 Rise Set
Actual Time 6:50 AM CET 4:44 PM CET
Civil Twilight 6:21 AM CET 5:12 PM CET
Nautical Twilight 5:49 AM CET 5:44 PM CET
Astronomical Twilight 5:18 AM CET 6:16 PM CET
Moon 11:46 PM CET 12:03 PM CET
Length of Visible Light 10h 51m
Length of Day
9h 54m
Waning Gibbous, 53% of the Moon is Illuminated
Nov 25
Waning Gibbous
Nov 25
Last Quarter
Dec 3
New
Dec 9
First Quarter
Dec 17
Full

Hourly Weather History & Observations

Time (CET) Temp. Windchill Dew Point Humidity Pressure Visibility Wind Dir Wind Speed Gust Speed Precip Events Conditions
12:55 AM 46.4 °F 45.2 °F 46.4 °F 100% 29.74 in 6.2 mi NNW 3.5 mph - N/A   Scattered Clouds
1:00 AM 46 °F - 46 °F 100% 29.75 in 6 mi NNW 3.5 mph - -   Partly Cloudy
2:55 AM 44.6 °F 43.1 °F 44.6 °F 100% 29.71 in 6.2 mi West 3.5 mph - N/A   Scattered Clouds
3:55 AM 44.6 °F 43.1 °F 44.6 °F 100% 29.71 in 6.2 mi West 3.5 mph - N/A   Scattered Clouds
4:00 AM 45 °F - 45 °F 100% 29.72 in 6 mi West 3.5 mph - -   Partly Cloudy
4:55 AM 44.6 °F 39.2 °F 44.6 °F 100% 29.71 in 6.2 mi West 10.4 mph - N/A   Scattered Clouds
5:55 AM 44.6 °F 43.1 °F 44.6 °F 100% 29.71 in 6.2 mi WNW 3.5 mph - N/A   Scattered Clouds
6:55 AM 42.8 °F - 42.8 °F 100% 29.74 in 6.2 mi North 1.2 mph - N/A   Scattered Clouds
7:00 AM 44 °F - 44 °F 97% 29.75 in 6 mi North 1.2 mph - -   Partly Cloudy
10:00 AM 56 °F - 50 °F 75% 29.77 in 6 mi WNW 8.1 mph - -   Scattered Clouds
11:55 AM 60.8 °F - 44.6 °F 55% 29.74 in 6.2 mi WNW 3.5 mph - N/A   Scattered Clouds
12:55 PM 62.6 °F - 41.0 °F 45% 29.71 in 6.2 mi West 4.6 mph - N/A   Scattered Clouds
1:00 PM 63 °F - 41 °F 33% 29.73 in 6 mi West 4.6 mph - -   Scattered Clouds
1:55 PM 62.6 °F - 39.2 °F 42% 29.71 in 6.2 mi WNW 6.9 mph - N/A   Scattered Clouds
2:55 PM 62.6 °F - 41.0 °F 45% 29.71 in 6.2 mi WNW 3.5 mph - N/A   Scattered Clouds
3:55 PM 59.0 °F - 41.0 °F 51% 29.71 in 6.2 mi West 5.8 mph - N/A   Scattered Clouds
4:00 PM 60 °F - 41 °F 38% 29.71 in 6 mi West 5.8 mph - -   Partly Cloudy
4:55 PM 57.2 °F - 46.4 °F 67% 29.71 in 6.2 mi WSW 8.1 mph - N/A   Scattered Clouds
5:55 PM 53.6 °F - 50.0 °F 88% 29.71 in 6.2 mi SW 3.5 mph - N/A   Mostly Cloudy
6:55 PM 55.4 °F - 48.2 °F 77% 29.71 in 6.2 mi West 10.4 mph - N/A Thunderstorm Mostly Cloudy
7:00 PM 55 °F - 49 °F 73% 29.74 in 6 mi West 10.4 mph - -   Partly Cloudy
7:55 PM 53.6 °F - 44.6 °F 72% 29.74 in 6.2 mi WNW 8.1 mph - N/A   Scattered Clouds
8:55 PM 50.0 °F - 46.4 °F 87% 29.74 in 6.2 mi West 6.9 mph - N/A   Partly Cloudy
9:55 PM 46.4 °F 45.2 °F 46.4 °F 100% 29.77 in 6.2 mi SW 3.5 mph - N/A   Partly Cloudy
10:00 PM 46 °F - 46 °F 99% 29.78 in 12 mi SW 3.5 mph - -   Scattered Clouds
10:55 PM 50.0 °F - 44.6 °F 82% 29.77 in 6.2 mi WNW 6.9 mph - N/A   Partly Cloudy
11:55 PM 50.0 °F - 50.0 °F 100% 29.77 in 6.2 mi WNW 8.1 mph - N/A   Partly Cloudy